Flag for Greece Weather past 2 weeks in Nikaia, Greece

Now
90 °F

Sunny.


Feels Like: 90 °F
Forecast: 71 / 89 °F
Wind: 7 mph from South

Location: Elefsis Airport

Current Time: Jul 22, 2014 at 12:58:11 PM

Latest Report: Jul 22, 2014 at 11:50 AM


Visibility: 10 mi

Pressure: 29.74 "Hg

Humidity: 41%

Dew point: 63 °F

Location of NikaiaLocation

Historic Weather in Nikaia — Graph

°F

Nikaia temperature yesterday

Maximum temperature yesterday: 97 °F (at 2:50 PM)
Minimum temperature yesterday: 73 °F (at 5:20 AM)
Average temperature yesterday: 85 °F

Past Weeks' High & Low Weather Summary

 TemperatureHumidityPressure
High100 °F (Jul 9, 3:50 PM)88% (Jul 19, 11:20 PM)29.95 "Hg (Jul 19, 11:20 PM)
Low68 °F (Jul 17, 3:50 AM)12% (Jul 9, 3:50 PM)29.59 "Hg (Jul 11, 5:50 PM)
Average82 °F43%29.81 "Hg
* Reported Jul 7 11:20 AM — Jul 22 11:50 AM, Nikaia, Weather by CustomWeather, © 2014

Note: Actual official high and low records may vary slightly from our data, if they occured in-between our weather recording intervals... More about our weather records

Advertising

Nikaia weather history for previous 24 hours

 ConditionsComfort  
Time TempWeatherWind HumidityBarometerVisibility
11:50 AM
Jul 22
90 °FSunny.7 mph41%29.74 "Hg10 mi
11:20 AM88 °FSunny.No wind40%29.77 "Hg10 mi
10:50 AM88 °FSunny.No wind35%29.77 "Hg10 mi
10:20 AM86 °FSunny.No wind40%29.77 "Hg10 mi
9:50 AM84 °FSunny.No wind45%29.77 "Hg10 mi
9:20 AM82 °FSunny.No wind48%29.77 "Hg10 mi
8:50 AM81 °FSunny.No wind51%29.77 "Hg10 mi
8:20 AM79 °FSunny.No wind51%29.77 "Hg10 mi
7:50 AM77 °FSunny.No wind54%29.77 "Hg10 mi
7:20 AM75 °FSunny.No wind57%29.77 "Hg10 mi
6:50 AM72 °FClear.No wind65%29.77 "Hg10 mi
6:20 AM72 °FClear.No wind65%29.77 "Hg10 mi
5:50 AM73 °FClear.No wind61%29.77 "Hg10 mi
5:20 AM72 °FClear.No wind65%29.77 "Hg10 mi
4:50 AM72 °FClear.No wind65%29.77 "Hg10 mi
4:20 AM73 °FClear.No wind61%29.77 "Hg10 mi
3:50 AM73 °FClear.No wind61%29.77 "Hg10 mi
3:20 AM73 °FClear.No wind65%29.80 "Hg10 mi
2:50 AM73 °FClear.No wind65%29.80 "Hg10 mi
2:20 AM75 °FClear.No wind61%29.80 "Hg10 mi
1:50 AM75 °FClear.No wind61%29.80 "Hg10 mi
1:20 AM75 °FClear.No wind61%29.83 "Hg10 mi
12:50 AM77 °FClear.No wind57%29.83 "Hg10 mi
12:20 AM79 °FClear.No wind54%29.83 "Hg10 mi
11:50 PM
Jul 21
79 °FClear.No wind54%29.83 "Hg10 mi
11:20 PM79 °FClear.No wind54%29.83 "Hg10 mi
10:50 PM79 °FClear.No wind54%29.83 "Hg10 mi
10:20 PM81 °FClear.No wind51%29.83 "Hg10 mi
9:50 PM81 °FClear.No wind51%29.83 "Hg10 mi
9:20 PM82 °FSunny.No wind51%29.83 "Hg10 mi
8:50 PM82 °FSunny.6 mph48%29.83 "Hg10 mi
8:20 PM84 °FSunny.7 mph51%29.80 "Hg10 mi
7:50 PM90 °FSunny.3 mph36%29.80 "Hg10 mi
7:20 PM90 °FSunny.3 mph38%29.80 "Hg10 mi
6:50 PM90 °FSunny.12 mph38%29.80 "Hg10 mi
6:20 PM91 °FSunny.12 mph34%29.80 "Hg10 mi
5:50 PM93 °FSunny.14 mph30%29.80 "Hg10 mi
5:20 PM93 °FPassing clouds.12 mph28%29.80 "HgN/A
4:50 PM93 °FPassing clouds.12 mph28%29.80 "HgN/A
4:20 PM95 °FPassing clouds.6 mph26%29.80 "HgN/A
3:50 PM95 °FPassing clouds.10 mph23%29.83 "HgN/A
3:20 PM97 °FPassing clouds.8 mph22%29.83 "HgN/A
2:50 PM97 °FPassing clouds.14 mph22%29.83 "HgN/A
2:20 PM95 °FPassing clouds.14 mph23%29.83 "HgN/A
1:50 PM93 °FPassing clouds.12 mph24%29.86 "HgN/A
1:20 PM93 °FPassing clouds.14 mph26%29.86 "HgN/A
12:50 PM93 °FPassing clouds.14 mph26%29.86 "HgN/A
12:20 PM93 °FSunny.14 mph26%29.86 "Hg10 mi
Weather by CustomWeather, © 2014

See weather overviewHow to use our weather pages